OBJECT AB, 61760

Orbit data source: Space-Track

You're viewing an Uncataloged Satellite

Recently launched and/or uncataloged satellites may have evolving metadata. Metadata may include but not limited to: Owner, Maufacturer, Bus, Motor, and Mission.

OBJECT AB, 61760 is a satellite in SSO that was launched on Mon, 04 Nov 2024 UTC via a SOYUZ-2-1B launch vehicle from the Vostochny Cosmodrome (VOSTO). Unknown objects in Earth's orbit typically refer to objects detected orbiting the Earth but have not yet been identified or cataloged. These objects could be anything from previously untracked satellites, spent rocket stages, debris from satellite collisions, or even natural meteoroids temporarily captured by Earth's gravity.

Loading next visibility...
Identifier
61760, 2024-199AB
Orbit
SSO
Country
Flag of TBDTBD
Related business
Manufacturer
Sputniks
Mission
Operational Commercial Communications
Bus & Motor
CUBESAT 3U?, Unknown motor
Mass
3 kg wet, 3 kg dry
Launch date (UTC)
2024-11-04 (1 year ago)
Launch vehicle
SOYUZ-2-1B
Launch site
Vostochny Cosmodrome (VOSTO)
Object type
Unknown
Shape & HBR
Box, 0.1 m
Radar Cross Section
0.035 m², Small (<0.1 m²)

Expand to show TLE details & history
Last TLE update: 13 hours ago

TLE from 13 hours ago
0 OBJECT AB
1 61760U 24199AB  25300.93493918  .00036257  00000-0  82830-3 0  9998
2 61760  97.3275 170.1892 0010113  51.8261 308.3896 15.42715369101701
Epoch: 2025-10-27T22:26Z
TLE epoch observation values (Epoch: 2025-10-27T22:26:18.745Z)
Latitude
-0.00002°
Longitude
157.08145°
Altitude
436.945 km
Speed
7.652 km/s
True Right ascension
11h 20m 45s
True Declination
0° 00' 00"
Sunlit
Object was in daylight at epoch
Visualization orbit readout
Latitude
Unknown
Longitude
Unknown
Altitude
Unknown
Speed
Unknown
Apparent Right ascension
Unknown
Apparent Declination
Unknown
Sunlit
N/A
Visualization observer readout
Local Sidereal Time
06:52:45
Azimuth
Unknown
Elevation
Unknown
Doppler factor
Unknown
Orbital elements
Apogee altitude
441.922 km
Perigee altitude
428.141 km
Semi-major axis
6,813.169 km
Eccentricity
0.00101
Inclination
97.3275°
RAAN
170.1892°
Arg. of periapsis
51.8261°
True anomaly
308.2987°
Mean anomaly
308.3896°
Eccentric anomaly
308.34416°
Mean motion
3.8594 °/min
Orbital period
93.28 mins
BSTAR
0.0008283
Loading maneuver chart data...
Computing Atmospheric mass density...
Loading historical data...
Loading historical data...
Loading historical data...
Loading historical data...
Loading historical data...
Loading historical data...
Loading historical data...

Documentation

Showing up to 5 results
|